OpenBCM V1.08-5-g2f4a (Linux)

Packet Radio Mailbox

IZ3LSV

[San Dona' di P. JN]

 Login: GUEST





  
I0OJJ  > KEPS     08.06.25 01:44l 350 Lines 16602 Bytes #35 (0) @ AMSAT
BID : ORB25159.1
Read: GUEST
Subj: 2Line Orbital Elements 25159.AMSAT
Path: IZ3LSV<ED1ZAC<EA5URD
Sent: 250608/0030Z @:EA5URD.EAMU.ESP.EU #:12581 XFBB7.07 Bid:ORB25159.1

R:250608/0025Z @:EA2RCF.EAVI.ESP.EU #:179 [Vitoria] $:ORB25159.1
R:250608/0025z @:I0OJJ.ITA.EU [Rome] obcm1.08-10-g596e
From: I0OJJ @ I0OJJ.ITA.EU (Gustavo)
To:   KEPS @ AMSAT
X-Info: This message was generated automatically


QST de W1STR

AMSAT Orbital Elements for Amateur Satellites in TLE Format
From Orbital Analysis Office
New England Sci-Tech STEM Education Center
Natick, MA June 08, 2025
To all radio amateurs


These element sets describe the orbits of various satellites 
in use by the amateur radio community. For details see:
www.amsat.org/keplerian-elements-formats/

A daily update of element sets is available at:
www.amsat.org/tle/daily-bulletin.txt
or without bulletin text:
www.amsat.org/tle/dailytle.txt


AO-07
1 07530U 74089B   25158.58358715 -.00000028  00000-0  11544-3 0  9995
2 07530 101.9926 162.8264 0012564 124.9549 352.9044 12.53689516313578
UO-11
1 14781U 84021B   25158.85431193  .00001248  00000-0  13709-3 0  9999
2 14781  97.7542 125.2568 0007586 354.2494   5.8635 14.89385007222382
AO-27
1 22825U 93061C   25158.11985935  .00000096  00000-0  53876-4 0  9998
2 22825  98.7366 219.6632 0009458 117.2629 242.9518 14.30798788653362
FO-29
1 24278U 96046B   25158.68203635 -.00000020  00000-0  17055-4 0  9997
2 24278  98.5765  52.8231 0349762 347.7189  11.5586 13.53249082422760
NOAA-15
1 25338U 98030A   25158.84816812  .00000217  00000-0  10703-3 0  9994
2 25338  98.5347 184.0212 0010345  11.7277 348.4143 14.26978783408155
GO-32
1 25397U 98043D   25158.51415679  .00000074  00000-0  52194-4 0  9995
2 25397  98.9700 137.5901 0001062 161.6973 198.4244 14.24314866397997
ISS
1 25544U 98067A   25158.85102627  .00007670  00000-0  14194-3 0  9994
2 25544  51.6367 353.3435 0001636 208.8299 151.2600 15.50057765513713
NO-44
1 26931U 01043C   25158.13097569  .00000166  00000-0  93212-4 0  9994
2 26931  67.0492 134.1716 0006046 275.6424  84.3988 14.31733575236752
SO-50
1 27607U 02058C   25158.86526490  .00000817  00000-0  11960-3 0  9994
2 27607  64.5518 205.8284 0056203 334.4180  25.4146 14.81620714209187
CO-55
1 27844U 03031E   25158.00972458  .00000317  00000-0  15705-3 0  9990
2 27844  98.6753 166.3165 0009395 187.5601 172.5437 14.23995041138275
CO-57
1 27848U 03031J   25158.44901148  .00000263  00000-0  13523-3 0  9996
2 27848  98.6781 166.7575 0008926 204.2363 155.8396 14.23330128138064
RS-22
1 27939U 03042A   25158.84846425  .00000951  00000-0  15856-3 0  9994
2 27939  98.3278 328.2582 0011812  21.9711 108.0154 14.72351983160574
NOAA-18
1 28654U 05018A   25158.85258494  .00000064  00000-0  57426-4 0  9993
2 28654  98.8423 238.3483 0015150 131.9844 228.2621 14.13609833 33506
CO-58
1 28895U 05043F   25158.88568672  .00001285  00000-0  21760-3 0  9990
2 28895  98.2497 303.2146 0013476 315.9663  44.0469 14.71010986 46921
CO-65
1 32785U 08021C   25158.54331148  .00004485  00000-0  32535-3 0  9998
2 32785  97.7830 129.6905 0008920 212.8086 147.2587 15.04408346928771
CO-66
1 32791U 08021J   25158.39758934  .00008508  00000-0  41372-3 0  9993
2 32791  97.7266 138.3897 0004541 147.8243 212.3269 15.18663424930167
RS-30
1 32953U 08025A   25158.87291323  .00000016  00000-0  41471-4 0  9991
2 32953  82.5033 228.2385 0020097  52.8094 307.4817 12.43164902773325
NOAA-19
1 33591U 09005A   25158.85876526  .00000180  00000-0  11973-3 0  9996
2 33591  98.9972 223.5536 0013823  13.4362 346.7175 14.13373529841867
SRMSAT
1 37841U 11058D   25158.27085789  .00000407  00000-0  77657-4 0  9992
2 37841  19.9700 168.5217 0011910  40.2792  58.1286 14.11435449704789
ZACUBE-1
1 39417U 13066B   25158.84795958  .00003707  00000-0  32355-3 0  9994
2 39417  97.7799 115.8696 0045945  58.9239 301.6479 14.96637274624655
Delfi-N3xt
1 39428U 13066N   25158.20839532  .00005371  00000-0  54809-3 0  9990
2 39428  97.8356  75.8846 0085359   9.6424 350.6406 14.88354041618725
GOMX-1
1 39430U 13066Q   25158.84965085  .00001518  00000-0  24230-3 0  9990
2 39430  97.6839  17.6209 0131933 197.3964 162.2700 14.67630437615154
LO-74
1 39440U 13066AA  25158.79711178  .00002881  00000-0  29480-3 0  9993
2 39440  97.8495 103.3696 0061771 184.4669 175.6006 14.89924059622378
AO-73
1 39444U 13066AE  25158.34902350  .00005649  00000-0  42356-3 0  9994
2 39444  97.7833 120.2541 0043752  37.5017 322.9246 15.02305890623251
DTUSAT-2
1 40030U 14033W   25158.36718505  .00004515  00000-0  29572-3 0  9997
2 40030  98.0543 130.0786 0011052  71.8667 288.3762 15.08235060596069
EO-80
1 40032U 14033Y   25158.18858620  .00005298  00000-0  34550-3 0  9993
2 40032  98.0426 129.5493 0009145  20.6593 339.5002 15.08318792596014
LILACSAT-2
1 40908U 15049K   25158.85388522  .00009976  00000-0  26116-3 0  9992
2 40908  97.5055 179.1583 0010110 156.5188 203.6521 15.38875478537960
IO-86
1 40931U 15052B   25151.18580175  .00001241  00000-0  78118-4 0  9996
2 40931   6.0006  24.0987 0012733 338.8432  21.1169 14.78805930523047
Horyu-4
1 41340U 16012D   25158.33428065  .00016989  00000-0  45410-3 0  9994
2 41340  30.9954 147.0389 0005906  30.5108 329.5880 15.36793646512444
Lapan A3
1 41603U 16040E   25158.86534073  .00002645  00000-0  93919-4 0  9994
2 41603  97.1364 163.5402 0009054 276.8351  83.1860 15.29847427497529
CAS-2T
1 41847U 16066G   25158.81042110  .00001430  00000-0  21181-3 0  9995
2 41847  98.4200 233.2887 0346172 183.6667 176.1980 14.43472580450764
CAS-4B
1 42759U 17034B   25158.87037550  .00058562  00000-0  61705-3 0  9996
2 42759  43.0074 332.0709 0021641 279.2996  80.5422 15.63125670442332
CAS-4A
1 42761U 17034D   25158.84105299  .00063379  00000-0  63393-3 0  9999
2 42761  43.0112 329.4207 0022862 283.1098  76.7216 15.64376070442357
TechnoSat
1 42829U 17042E   25158.71145590  .00001756  00000-0  13920-3 0  9999
2 42829  97.3897 327.5170 0013125 282.2660  77.7095 15.01707222430440
AO-91
1 43017U 17073E   25158.59819966  .00007460  00000-0  38293-3 0  9992
2 43017  97.5247  29.4215 0172881 172.9989 187.3715 15.04675103408912
S-Net D
1 43186U 18014G   25158.57938115  .00003278  00000-0  19564-3 0  9994
2 43186  97.5636  61.5062 0007668 224.0984 135.9635 15.11811911402070
S-Net B
1 43187U 18014H   25158.45237165  .00003517  00000-0  20969-3 0  9996
2 43187  97.5644  61.3522 0008464 219.7671 140.2940 15.11792015402057
S-Net A
1 43188U 18014J   25157.98408184  .00003338  00000-0  19913-3 0  9993
2 43188  97.5650  61.0381 0008296 222.2381 137.8210 15.11812749401985
S-Net C
1 43189U 18014K   25157.99143689  .00003484  00000-0  20779-3 0  9995
2 43189  97.5668  61.0595 0010006 215.2761 144.7808 15.11784191400537
Ten-Koh
1 43677U 18084G   25158.46199252  .00001653  00000-0  13610-3 0  9996
2 43677  98.0865 330.6346 0005190 267.9885  92.0743 15.00568254359929
PO-101
1 43678U 18084H   25158.85229569  .00001658  00000-0  14455-3 0  9998
2 43678  98.1047 334.9109 0006739 301.5455  58.5107 14.98337248360123
QO-100
1 43700U 18090A   25158.84766975  .00000162  00000-0  00000+0 0  9993
2 43700   0.0178  54.0815 0002338  55.7826 117.5645  1.00273444 24161
MinXSS-2
1 43758U 18099A   25158.42811955  .00011320  00000-0  44646-3 0  9994
2 43758  97.5023 224.4559 0012897 157.5659 202.6145 15.25654448356649
AO-95
1 43770U 18099N   25158.73612714  .00006843  00000-0  34725-3 0  9995
2 43770  97.4920 216.8419 0010039 209.9425 150.1235 15.17200704356276
RANGE-A
1 43773U 18099R   25158.54509039  .00004330  00000-0  27689-3 0  9992
2 43773  97.4485 207.0056 0011091 190.8517 169.2474 15.09072565355912
MOVE-II
1 43780U 18099Y   25158.75209940  .00236800  00000-0  15058-2 0  9996
2 43780  97.4654 234.2368 0005969 191.4367 168.6763 15.75763771357514
SNUSat 2
1 43782U 18099AA  25158.55848206  .00006704  00000-0  36595-3 0  9998
2 43782  97.4600 213.4343 0012990 154.4765 205.7111 15.14589530356197
SnugLite
1 43784U 18099AC  25158.10744781  .00007290  00000-0  36661-3 0  9999
2 43784  97.4414 212.5468 0004545 145.9198 214.2328 15.17523394356264
ITASat 1
1 43786U 18099AE  25158.56162872  .00005700  00000-0  32663-3 0  9998
2 43786  97.4567 212.9531 0013772 207.1957 152.8554 15.12908063356157
EAGLET 1
1 43790U 18099AJ  25158.89272076  .00003926  00000-0  25163-3 0  9992
2 43790  97.4765 213.2396 0011918 187.9740 172.1301 15.09041296355819
ESEO
1 43792U 18099AL  25158.53723380  .00001928  00000-0  14886-3 0  9994
2 43792  97.4492 206.1819 0013382 164.7098 195.4535 15.02616703355513
CSIM
1 43793U 18099AM  25158.80211994  .00238328  00000-0  16008-2 0  9991
2 43793  97.4801 236.5477 0005535 172.7125 187.4221 15.74493965357366
JO-97
1 43803U 18099AX  25158.15000179  .00008634  00000-0  39445-3 0  9998
2 43803  97.4666 217.2476 0008762 145.3094 214.8714 15.20781501356401
Suomi 100
1 43804U 18099AY  25158.68774713  .00008199  00000-0  40138-3 0  9996
2 43804  97.4733 217.0823 0013516 148.9886 211.2149 15.18355945356412
ISAT
1 43879U 18111D   25158.20553954  .00013839  00000-0  48104-3 0  9991
2 43879  97.5965  72.5457 0008038 191.8504 168.2548 15.29825882353332
UWE-4
1 43880U 18111E   25158.70414076  .00012293  00000-0  48199-3 0  9996
2 43880  97.5910  71.5473 0010838 208.5332 151.5314 15.25855864351341
Sparrow
1 43881U 18111F   25158.51621993  .00016835  00000-0  56281-3 0  9991
2 43881  97.6110  75.7328 0004936 233.6605 126.4181 15.31065078353470
Prox-1
1 44339U 19036A   25158.46025394  .00008932  00000-0  11222-2 0  9998
2 44339  23.9965  75.7174 0007122  50.4730 309.6396 14.79922526317702
SONATE
1 44400U 19038Q   25158.50655878  .00272102  30527-4  76149-3 0  9993
2 44400  97.6885 185.2536 0006795 208.0351 152.0558 15.93589434329240
Taurus 1
1 44530U 19059C   25158.88333293  .00004589  00000-0  84941-3 0  9995
2 44530  98.6064 298.1955 0009721  49.8765 310.3288 14.65832000303693
